User: anonymous   Login
Location: Bourg-d�Oueil
(42.8588°N, 0.4991°E)
Time: 08:12:44
(UTC+00:00)
Language:

IRIDIUM 172 - Orbit

View from above orbital plane
View from above orbital plane
View from above satellite
View from above satellite

Ground track
Ground track

The orbit data is extracted from the following two-line orbital elements,

1 43927U 19002F   22028.83006428  .00000016  00000-0 -14334-5 0  9990
2 43927  86.3980 302.3709 0002087  76.0502 284.0926 14.34213605159580
Epoch (UTC): 28 January 2022 19:55:17
Eccentricity: 0.0002087
inclination: 86.3980°
perigee height: 776 km
apogee height: 779 km
right ascension of ascending node: 302.3709°
argument of perigee: 76.0502°
revolutions per day: 14.34213605
mean anomaly at epoch: 284.0926°
orbit number at epoch: 15958

The dashed part of the orbit path shows where the satellite is in the earth's shadow,  

DLR